SCP
0 0 0 0 0 0 0 0 0 0 0 0 0 0 0 0 0 0 0 0 0 0 0 0 0 0 0 0 0 0 0 0 0 0 0 0 0 0 0 0 0 0 0
0 0 0 0 0 0 0 0 0 0 0 0 0 0 0 0 0 0 0 0 0 0 0 0 0 0 0 0 0 0 0 0 0 0 0 0 0 0 0 0 0 0 0
0 0 0 0 0 0 0 0 0 0 0 0 0 0 0 0 0 0 0 0 0 0 0 0 0 0 0 0 0 0 0 0 0 0 0 0 0 0 0 0 0 0 0
0 0 0 0 0 0 0 0 0 0 0 0 0 0 0 0 0 0 0 0 0 0 0 0 0 1 0 0 0 0 0 0 0 0 0 0 0 0 0 0 0 0 0
0 0 0 0 0 0 0 0 0 0 0 0 0 0 0 0 0 0 0 0 0 0 0 0 0 1 0 0 0 1 1 1 1 0 0 0 0 0 0 0 0 0 0
0 0 0 0 0 0 0 0 0 0 0 0 0 0 0 0 0 0 0 0 0 0 0 0 0 0 0 0 0 1 1 1 1 0 0 0 0 0 0 0 0 0 0
0 0 0 0 0 0 0 0 0 0 0 0 0 0 0 0 0 0 0 0 0 0 0 0 0 0 0 0 0 1 1 0 0 1 1 1 1 0 0 0 0 0 0
0 0 0 0 0 0 0 0 0 0 0 0 0 0 0 0 0 0 0 0 0 0 0 0 0 0 0 0 0 0 0 0 0 0 1 1 1 0 0 0 1 1 0
0 0 0 0 0 0 0 0 0 0 0 0 0 0 0 0 0 0 0 0 0 0 0 0 0 0 0 0 0 0 0 0 0 0 0 1 0 0 0 0 0 0 0
0 0 0 0 0 0 0 0 0 0 0 0 0 0 0 0 0 0 0 0 0 0 0 0 0 0 0 0 0 0 0 0 0 0 0 0 0 0 0 0 0 0 0
0 0 0 0 0 0 0 0 0 0 0 0 0 0 0 0 0 0 0 0 0 0 0 0 0 0 0 0 0 0 0 0 0 0 0 0 0 0 0 0 0 0 0
0 0 0 0 0 0 0 0 0 0 0 0 0 0 0 0 0 0 0 0 0 0 0 0 0 0 0 0 0 0 0 0 0 0 0 0 0 0 0 0 0 0 0
0 0 0 0 0 0 0 0 0 0 0 0 0 0 0 0 0 0 0 0 0 0 0 0 0 0 0 0 0 0 0 0 0 0 0 0 0 0 0 0 0 0 0
0 0 0 0 0 0 0 0 0 0 0 0 0 0 0 0 0 0 0 0 0 0 0 0 0 0 0 0 0 0 0 0 0 0 0 0 0 0 0 0 0 0 0
0 0 0 0 0 0 0 0 0 0 0 0 0 0 0 0 0 0 0 0 0 0 0 0 0 0 0 0 0 0 0 0 0 0 0 0 0 0 0 0 0 0 0
0 0 0 0 0 0 0 0 0 0 0 0 0 0 0 0 0 0 0 0 0 0 0 0 0 0 0 0 0 0 0 0 0 0 0 0 0 0 0 0 0 0 0
0 0 0 0 0 0 0 0 0 0 0 0 0 0 0 0 0 0 0 0 0 0 0 0 0 0 0 0 0 0 0 0 0 0 0 0 0 0 0 0 0 0 0
0 0 0 0 0 0 0 0 0 0 0 0 0 0 0 0 0 0 0 0 0 0 0 0 0 0 0 0 0 0 0 0 0 0 0 0 0 0 0 0 0 0 0
0 0 0 0 0 0 0 0 0 0 0 0 0 0 0 0 0 0 0 0 0 0 0 0 0 0 0 0 0 0 0 0 0 0 0 0 0 0 0 0 0 0 0
0 0 0 1 1 0 0 0 0 0 0 0 0 0 0 0 0 0 0 0 0 0 0 0 0 0 0 0 0 0 0 0 0 0 0 0 0 0 0 0 0 0 0
1 0 0 1 1 0 0 0 0 0 0 0 0 0 0 0 0 0 0 0 0 0 0 0 0 0 0 0 0 0 0 0 0 0 0 0 0 0 0 0 0 0 0
1 1 1 1 1 1 0 0 0 0 0 0 0 0 0 0 0 0 0 0 0 0 0 0 0 0 0 0 0 0 0 0 0 0 0 0 0 0 0 0 0 0 0
1 1 1 1 1 1 0 0 0 0 0 0 0 0 0 0 0 0 0 0 0 0 0 0 0 0 0 0 0 0 0 0 0 0 0 0 0 0 0 0 0 0 0
1 1 1 1 1 0 0 0 0 0 0 0 0 0 0 0 0 0 0 0 0 0 0 0 0 0 0 0 0 0 0 0 0 0 0 0 0 0 0 0 0 0 0
1 1 1 0 0 0 0 0 0 0 0 0 0 0 0 0 0 0 0 0 0 0 0 0 0 0 0 0 0 0 0 0 0 0 0 0 0 0 0 0 0 0 0
0 0 0 0 0 0 0 0 0 0 0 0 0 0 0 0 0 0 0 0 0 0 0 0 0 0 0 0 0 0 0 0 0 0 0 0 0 0 0 0 0 0 0
Wind_Speed
2 2 1 1 1 1 1 1 1 1 2 2 1 2 2 2 2 2 1 4 6 7 8 9 10 9 10 10 9 9 9 9 9 9 9 9 9 9 9 8 8 8 7
3 3 2 2 1 1 1 1 1 2 1 1 1 1 1 1 1 2 1 1 3 5 7 8 8 9 9 9 9 9 10 9 9 9 9 9 9 9 9 9 8 8 7
4 3 3 2 1 1 2 2 2 2 2 2 2 1 1 0 0 1 1 0 0 2 4 6 7 7 8 9 10 10 10 10 10 9 9 9 9 8 8 8 8 8 7
4 4 3 2 2 2 2 2 2 2 2 2 1 1 1 1 0 0 1 1 1 1 2 4 5 6 8 9 10 10 10 10 10 10 10 10 10 9 9 9 9 8 8
4 4 3 2 2 2 2 2 2 2 2 1 1 2 2 1 1 1 1 1 1 1 1 1 3 5 7 8 9 9 9 9 10 11 11 12 12 11 10 10 9 9 9
4 4 3 3 3 3 2 2 3 3 2 1 2 3 3 2 2 2 2 1 0 1 1 1 0 1 4 5 6 8 9 9 10 11 12 12 12 12 11 11 11 11 10
5 4 4 3 3 3 2 2 2 3 2 1 2 3 3 3 3 2 2 2 1 1 1 1 1 1 1 2 3 6 7 8 9 10 10 11 11 11 12 12 12 12 12
5 5 5 3 3 3 3 2 2 2 2 2 2 2 2 3 3 3 2 2 2 1 0 0 1 1 1 1 2 4 6 7 8 9 10 10 11 11 11 12 12 12 13
4 5 5 4 4 3 3 2 2 3 2 2 2 3 3 2 1 2 3 2 2 2 1 1 0 0 1 1 1 2 3 5 7 7 7 8 8 9 10 11 12 13 13
4 5 5 5 4 3 3 2 2 2 3 2 1 2 1 2 2 0 2 2 2 2 2 1 1 0 0 0 1 1 2 3 4 5 5 6 6 7 8 9 11 12 12
3 4 5 5 4 3 3 3 2 2 2 3 2 2 2 2 2 2 0 2 2 2 1 1 1 0 0 0 1 1 1 1 1 2 3 3 5 6 7 8 10 12 12
2 4 5 4 4 4 4 3 3 3 2 3 2 2 2 2 2 2 2 0 1 2 2 1 1 1 1 1 2 2 2 1 1 1 1 2 3 4 5 7 8 10 11
3 5 5 5 4 4 4 4 3 3 3 3 2 2 1 2 2 2 2 1 0 2 2 1 1 1 2 2 2 3 3 3 3 3 3 3 3 4 4 5 6 7 9
5 6 6 6 5 5 5 4 3 3 2 2 2 2 1 1 2 2 3 3 1 1 2 2 1 1 2 2 3 4 3 5 5 5 5 5 5 5 5 5 6 6 7
5 6 7 6 6 6 6 5 3 4 3 3 3 3 2 1 1 1 2 2 3 2 2 2 2 2 1 2 3 3 4 5 6 7 7 7 7 7 7 7 7 7 7
6 7 7 7 7 7 6 6 4 4 4 3 3 3 2 1 1 1 2 2 2 3 2 2 2 2 2 2 3 4 5 7 8 9 9 9 9 9 10 9 9 9 9
7 7 7 7 8 8 7 6 6 6 6 4 4 4 4 3 2 2 2 2 2 2 3 2 2 2 3 3 3 3 4 5 5 9 10 11 11 11 11 11 11 11 11
7 7 7 7 8 8 8 8 8 7 7 7 6 6 6 4 4 3 3 4 3 4 4 4 2 2 4 3 3 4 4 4 5 8 11 11 12 12 12 12 12 12 12
6 6 7 7 8 8 8 8 8 8 8 8 7 7 7 6 6 4 5 5 4 4 4 4 4 2 3 3 3 4 4 4 5 7 9 11 12 12 13 12 13 13 13
6 6 6 7 7 8 8 8 8 7 7 7 7 8 7 8 8 7 6 6 5 5 4 4 5 4 4 3 3 4 5 4 4 5 6 7 9 11 12 12 13 13 13
6 6 5 6 6 6 7 8 8 8 7 7 7 7 7 9 10 8 6 6 6 5 5 5 5 4 4 4 4 3 5 5 5 5 5 5 5 6 7 9 11 13 14
4 4 5 5 5 5 7 9 8 6 6 6 6 6 5 6 7 8 9 8 8 7 7 5 5 6 7 5 4 4 4 5 6 3 3 5 4 7 7 7 10 13 14
3 3 3 3 3 3 5 7 8 5 5 5 4 3 3 2 3 3 5 6 7 8 8 6 7 8 7 6 5 6 6 7 8 5 4 8 6 8 8 8 13 15 15
2 2 2 2 2 1 3 5 5 3 2 2 3 3 3 1 1 2 3 4 4 5 6 6 7 8 8 6 6 7 7 8 8 6 5 8 8 8 9 8 12 16 17
3 2 2 2 2 2 1 2 3 2 1 1 1 1 1 1 2 2 2 4 5 5 5 6 7 8 10 10 7 5 5 6 8 7 5 6 7 8 8 9 10 14 17
5 5 6 6 6 6 7 6 4 3 2 1 1 1 2 2 3 3 2 3 5 6 5 5 5 6 7 8 7 7 6 7 7 6 5 5 6 5 7 6 7 7 9
Wind_Direction
141 130 113 102 97 87 89 80 72 73 68 67 113 149 159 159 160 147 165 200 192 194 192 190 188 186 183 183 184 185 187 187 182 177 175 174 173 173 173 170 167 164 163
143 134 116 106 92 90 98 97 91 90 72 70 81 112 170 166 159 156 164 220 213 201 199 199 199 196 195 194 194 196 195 194 190 187 185 183 182 183 185 182 179 175 172
142 133 123 116 102 94 94 80 72 69 76 70 62 65 83 95 133 169 171 194 266 234 217 210 207 205 207 206 204 203 201 198 194 195 194 192 190 191 193 190 187 184 182
135 127 125 124 114 97 91 90 73 70 60 62 53 29 36 39 359 214 197 220 221 250 245 227 216 213 215 217 215 211 209 204 199 200 201 201 199 198 198 197 196 194 193
130 124 121 117 113 98 87 92 67 80 81 70 76 53 34 24 356 322 279 245 217 211 226 259 237 224 225 226 224 222 218 212 208 209 209 209 208 205 204 203 202 202 202
130 120 114 112 110 102 87 80 82 66 70 64 73 59 40 28 29 20 351 343 236 206 191 189 209 246 238 234 231 227 225 220 215 216 217 216 215 211 209 208 207 208 208
135 128 120 114 112 110 113 112 101 80 55 41 78 45 23 30 43 31 18 21 19 5 157 164 165 177 249 246 237 231 231 231 225 221 219 219 221 217 214 213 214 213 213
143 140 135 133 126 112 96 92 110 106 60 41 106 93 40 7 6 16 15 28 14 5 28 171 171 188 203 214 246 236 229 231 233 231 225 220 222 224 220 218 218 218 218
150 142 146 142 141 131 125 120 123 125 118 55 58 134 141 195 313 346 7 21 11 16 9 4 315 214 201 204 251 254 233 226 232 237 234 228 227 227 227 226 225 224 222
157 152 150 148 145 139 141 145 128 126 130 126 77 56 97 143 144 61 344 356 3 19 6 357 5 354 213 221 260 260 251 232 230 231 229 227 229 231 232 232 234 231 227
166 160 155 152 151 149 150 141 125 121 126 141 144 131 100 72 85 134 173 333 350 353 348 335 320 312 272 237 262 264 249 212 200 207 206 215 221 230 238 240 244 240 236
171 173 163 163 162 159 159 156 144 131 124 123 128 139 149 149 154 141 152 217 307 316 325 316 289 262 242 231 252 255 226 202 202 208 217 235 242 246 251 251 250 248 245
186 191 174 173 173 174 166 155 152 151 146 139 141 136 147 149 146 142 135 141 294 316 320 313 292 264 237 217 244 262 241 230 230 235 244 256 264 268 266 259 258 257 256
191 183 181 183 183 175 169 162 158 167 162 161 161 152 149 157 160 160 152 145 127 332 318 301 309 268 251 234 237 248 251 245 244 245 248 256 263 269 272 270 265 265 266
187 183 184 186 188 182 175 167 174 180 173 179 178 177 175 186 177 172 160 156 152 177 259 284 288 295 267 245 240 235 242 252 258 258 257 257 259 262 263 264 264 263 263
187 181 188 191 191 189 183 177 179 184 181 188 184 184 190 191 184 174 170 171 166 167 214 255 265 289 293 275 239 235 246 259 263 265 262 258 257 257 257 258 257 257 256
187 191 195 195 195 194 188 187 194 188 194 201 197 198 208 189 189 189 179 175 181 173 206 255 252 269 268 269 274 254 251 251 259 261 261 258 255 254 254 254 254 253 252
195 199 198 199 201 198 192 194 201 199 200 207 210 206 218 205 205 200 193 200 201 199 205 238 248 248 252 259 264 268 263 254 254 259 257 256 254 253 252 251 250 249 248
199 198 195 201 204 200 197 202 203 204 208 213 211 211 218 208 219 215 211 214 215 209 207 226 250 243 255 255 263 265 264 263 262 260 258 255 253 253 252 251 250 247 245
193 197 202 206 205 201 200 202 204 209 215 220 219 218 218 213 220 220 221 223 221 218 214 228 249 255 254 249 242 261 273 260 264 268 261 258 255 255 254 252 250 247 245
194 194 199 206 204 200 205 203 204 209 214 223 226 226 227 224 224 221 223 224 219 224 226 236 251 259 258 248 249 247 267 281 273 250 259 256 253 257 258 255 252 248 246
184 182 196 202 200 214 214 205 203 209 212 219 229 233 234 236 237 233 234 229 216 221 230 235 247 253 262 259 261 257 265 277 282 240 242 269 252 260 259 254 250 248 249
168 176 193 191 193 213 204 200 202 198 208 216 216 222 233 234 224 240 245 243 236 234 229 233 249 255 262 257 256 262 256 256 263 265 260 277 267 265 262 256 248 247 248
144 150 160 171 176 208 196 192 189 183 190 204 204 202 210 242 281 262 260 262 261 255 246 239 246 257 262 265 253 259 266 267 266 262 239 265 271 268 270 262 250 246 247
98 105 103 115 108 59 66 161 157 137 135 128 106 125 181 261 326 304 269 276 284 283 268 256 258 266 272 273 268 266 262 262 272 270 225 243 265 273 272 267 259 247 245
74 75 63 57 60 52 48 61 86 95 99 83 56 45 40 6 345 345 285 282 288 292 303 304 292 287 281 278 267 246 251 259 267 271 236 230 261 272 276 260 260 262 256